RH
10 10 10 10 10 11 14 14 16 19 16 16 18 15 17 16 15 17 17 18 18 18 17 18 18 18 18 19 19 17 16 16 17 16 20 22 16 15 14 13 13 12 12 13 14 16 17 16 16 17 17 17 17 17 18 19 19 19 20 22 23 26 28 29 30 30 30 31 32 34 36 35 33 31 31 31 29 28 27 27 27 28 31 33 34 36 37 36 37 35 33 32 34 34 35 36 37
9 10 9 10 10 13 15 12 14 17 16 18 17 13 14 14 15 17 17 17 17 17 18 19 19 19 18 19 19 18 18 17 16 16 16 16 15 16 15 15 14 13 13 12 13 14 17 17 16 16 17 17 16 17 18 20 20 20 20 19 19 20 21 21 22 22 22 24 26 28 30 30 30 29 29 30 28 26 25 25 26 27 30 32 34 36 38 37 34 33 31 31 32 32 33 34 34
9 9 10 12 12 13 13 14 15 15 16 17 15 13 13 14 15 16 16 16 16 17 17 18 19 18 18 18 18 17 19 18 17 16 16 16 16 17 16 16 15 15 13 12 13 14 15 16 16 17 17 18 17 17 18 20 20 20 20 20 19 19 19 19 19 19 20 21 22 25 28 28 28 28 29 30 29 27 25 24 24 25 28 30 32 33 35 34 31 30 30 30 31 32 32 32 32
8 8 11 13 13 14 16 19 18 15 16 16 15 13 13 14 15 15 15 15 16 17 17 18 18 18 17 16 17 16 18 18 17 16 17 17 17 16 17 17 17 16 15 14 13 13 15 14 15 16 17 18 17 17 17 20 21 20 20 21 20 19 19 19 19 19 20 20 20 24 26 26 27 28 28 29 29 29 27 24 23 24 26 28 29 30 29 27 27 27 26 26 28 30 31 31 31
8 8 10 12 13 16 17 17 17 15 16 16 14 13 13 14 15 15 15 15 15 16 16 17 17 17 16 16 16 15 16 16 16 16 17 17 16 16 17 17 18 17 17 16 14 13 14 14 14 15 16 17 18 17 17 19 21 21 21 21 20 20 20 20 20 21 21 20 22 24 26 26 27 29 28 27 27 26 26 24 22 23 25 26 27 26 24 24 23 22 20 19 21 24 26 27 28
11 11 10 11 12 13 15 16 16 15 15 14 12 12 13 13 14 14 14 14 15 16 16 16 16 16 15 14 14 13 13 14 15 15 16 16 16 16 17 18 18 18 18 18 16 15 14 13 13 14 14 15 17 17 16 18 20 21 21 21 22 22 22 22 22 22 22 21 23 25 25 26 28 30 28 26 26 23 23 23 22 22 23 24 24 24 23 21 19 16 15 15 15 17 17 19 20
14 14 12 12 13 12 14 17 15 14 14 13 12 12 12 13 13 13 14 14 15 16 16 16 15 15 14 13 13 12 11 11 12 13 14 15 15 15 16 17 19 19 19 19 18 16 15 13 13 13 13 14 15 15 15 16 18 21 21 21 22 22 22 22 22 22 22 22 24 26 26 27 29 30 27 25 25 23 23 24 22 22 22 22 22 21 20 18 15 13 12 13 13 13 13 13 12
14 15 12 13 16 14 14 15 14 13 13 12 10 11 12 12 14 14 14 14 15 16 15 15 14 13 13 12 12 12 10 10 11 12 13 13 14 14 15 16 18 19 19 19 19 18 17 16 14 13 13 13 14 14 14 14 16 20 21 20 21 21 21 22 22 22 22 22 24 27 28 28 29 30 28 24 23 21 22 24 23 22 21 21 20 18 18 15 13 12 11 11 11 11 10 10 9
14 14 12 13 17 16 15 14 13 13 12 11 10 10 11 12 13 14 13 13 14 14 14 14 14 13 12 11 12 12 11 10 10 10 11 12 12 13 13 14 16 18 18 19 19 19 18 18 16 15 14 13 13 13 13 13 14 16 18 19 20 21 21 21 21 22 23 22 25 27 28 28 29 29 28 23 21 20 19 19 20 20 20 21 20 17 16 14 11 9 9 9 9 9 8 8 8
14 14 13 13 15 15 14 14 13 12 12 11 10 10 10 11 12 12 12 12 13 13 14 14 14 13 12 11 11 13 12 11 10 10 10 11 12 12 12 13 14 16 17 18 18 19 18 18 18 17 16 15 14 13 12 13 13 13 14 16 18 19 20 20 21 25 25 24 25 27 28 28 29 29 28 24 20 18 16 14 15 15 15 17 18 15 14 11 8 8 8 8 8 8 8 8 8
13 12 12 14 15 13 13 13 12 11 11 10 10 10 10 10 11 11 12 12 13 13 13 14 13 12 11 10 11 12 11 10 10 10 10 10 11 11 11 11 12 13 14 15 17 18 18 18 18 17 17 17 16 15 13 13 13 13 13 14 15 16 17 18 23 28 28 27 26 28 29 28 29 29 27 23 18 17 15 12 13 13 13 13 13 12 10 9 7 8 8 8 8 8 8 8 9
14 12 12 14 14 13 12 12 12 11 11 11 12 10 10 11 11 12 12 13 12 12 13 13 12 12 10 10 12 12 11 10 10 10 10 10 10 10 10 10 11 12 12 13 14 16 17 17 17 17 17 17 18 17 16 15 14 13 13 13 14 14 15 18 24 27 27 27 27 27 28 28 27 26 24 20 16 15 15 13 12 12 11 11 10 10 9 8 8 8 8 8 8 9 9 10 11
14 12 13 15 14 12 12 13 12 12 12 13 14 11 11 11 11 11 11 12 11 11 12 12 11 11 10 10 11 11 11 10 10 10 10 11 10 10 10 10 10 10 11 11 12 14 15 16 16 16 16 16 17 18 17 17 16 15 14 13 13 13 14 17 22 23 23 24 24 23 24 24 24 23 22 21 17 15 15 12 11 10 10 10 9 9 9 9 9 9 9 9 9 10 11 11 12
13 13 14 15 16 13 12 13 14 15 14 14 14 12 12 11 11 11 10 11 10 11 12 11 11 11 11 11 11 13 11 10 10 10 10 10 10 10 10 10 10 10 10 10 11 12 13 14 15 15 15 15 16 16 17 18 18 17 17 16 15 14 13 15 18 18 18 19 20 20 21 22 23 22 19 18 16 14 13 11 10 10 10 10 10 10 10 10 10 10 10 10 10 11 12 12 12
13 14 14 16 18 16 15 14 14 14 14 14 15 13 13 12 12 11 11 11 10 11 11 11 11 11 11 10 11 13 11 10 10 10 10 10 10 10 10 10 10 10 10 10 10 11 12 13 14 14 15 15 14 15 15 16 17 18 18 18 17 16 15 15 15 16 15 16 17 19 20 21 21 20 17 15 15 14 12 11 11 12 12 12 12 11 11 11 11 11 11 11 12 12 13 12 12
14 15 15 17 19 18 17 15 15 15 15 17 16 14 13 13 12 12 12 11 11 11 11 11 11 11 11 10 10 11 10 10 10 10 10 10 10 10 10 10 10 10 10 10 10 11 11 11 12 13 14 14 14 14 14 14 15 16 18 19 19 17 17 16 16 16 16 16 16 17 17 17 17 16 15 14 14 13 11 11 12 12 12 12 12 12 12 12 12 12 12 13 14 14 13 13 13
15 15 16 19 20 19 18 16 16 16 16 16 16 15 14 14 14 14 13 13 12 11 11 11 11 11 10 10 10 10 9 9 10 9 10 10 10 10 10 10 10 10 10 10 10 10 11 11 11 12 12 13 14 15 15 15 14 14 15 17 18 18 17 17 17 17 17 17 17 17 16 15 14 14 14 13 13 12 11 11 11 12 12 13 13 13 13 13 13 13 14 14 15 14 14 14 13
16 15 18 21 19 19 19 16 15 15 15 15 15 15 14 15 15 15 14 14 13 11 11 11 11 11 11 10 10 10 9 9 10 9 10 10 10 10 10 10 10 10 10 10 10 10 10 11 11 11 11 12 13 14 15 16 16 14 13 15 16 17 17 16 17 17 17 17 17 17 16 16 16 15 15 14 14 12 12 12 12 12 12 12 12 12 13 13 13 14 14 15 15 15 15 14 14
16 15 19 21 17 17 16 14 13 13 14 14 14 14 15 15 15 16 16 14 13 12 10 11 10 10 11 11 10 10 10 10 10 10 10 10 10 10 10 10 10 10 10 10 10 10 10 10 11 10 10 10 11 13 14 16 18 15 13 14 15 16 17 16 16 16 16 16 16 16 17 17 17 16 16 16 15 13 13 13 13 13 13 13 12 12 12 12 13 14 15 16 16 16 15 15 15
15 16 18 18 17 17 15 14 13 13 13 13 13 14 14 15 15 16 16 15 15 13 11 10 10 10 11 10 10 10 11 11 10 10 10 10 10 10 11 11 11 10 10 10 10 10 10 11 11 11 11 11 10 11 13 14 16 17 15 14 15 15 16 15 16 16 16 16 16 15 16 17 16 15 15 14 14 13 13 14 14 14 14 14 13 13 13 13 13 14 15 16 16 16 16 16 16
15 16 17 16 18 18 16 16 15 15 14 14 14 14 14 14 15 16 15 15 15 13 12 11 10 10 10 10 11 10 11 11 11 9 9 9 9 10 10 11 11 11 10 10 10 10 11 10 11 11 11 11 11 11 11 12 13 16 17 16 16 16 15 15 15 16 15 16 17 15 16 16 14 14 13 13 12 11 12 12 13 13 14 14 14 14 14 14 14 14 15 15 16 16 16 17 17
16 17 18 17 17 17 17 17 17 17 17 17 16 15 15 15 15 15 15 15 15 14 13 12 11 10 10 10 11 11 11 11 11 10 10 10 9 9 10 10 10 11 11 10 10 10 10 11 11 11 11 11 11 11 11 11 12 13 16 16 16 15 14 14 14 14 14 15 17 16 18 19 15 14 14 13 12 10 11 11 12 12 12 12 13 14 14 14 15 15 15 16 16 16 16 17 18
17 17 18 18 18 17 17 17 17 18 17 17 17 17 17 16 16 15 15 15 16 16 15 14 13 12 13 13 13 13 14 13 12 12 12 12 11 11 10 11 10 10 10 10 10 10 10 11 11 11 11 11 11 12 11 11 11 11 13 15 15 14 13 14 14 14 13 14 15 15 19 20 15 14 14 13 12 11 11 11 12 12 12 12 12 12 13 14 15 15 16 17 17 17 17 18 18
20 19 18 18 18 18 18 18 18 19 17 16 16 16 17 18 17 16 15 14 15 17 17 16 15 15 15 15 16 16 17 16 16 15 15 15 15 15 15 14 13 11 10 10 10 10 10 11 11 11 12 12 12 12 12 12 12 12 12 13 12 13 13 13 13 14 14 14 14 14 17 16 13 13 13 13 13 11 12 12 12 12 12 12 11 12 12 12 13 14 16 17 18 17 18 18 19
21 20 19 19 19 20 20 20 20 20 20 18 17 16 16 17 17 16 16 15 15 16 17 17 16 16 16 16 16 17 17 16 16 16 16 16 17 17 18 17 15 13 11 10 10 10 10 10 10 11 11 12 12 12 13 13 13 13 12 12 12 12 12 12 13 14 14 14 15 16 15 13 13 13 12 13 13 11 12 12 12 13 13 12 12 12 12 12 13 13 15 16 17 18 18 19 20
21 21 21 20 20 21 21 21 21 22 22 20 19 17 16 17 16 16 18 17 16 15 16 16 17 16 16 16 16 17 17 16 16 16 16 17 17 18 18 18 17 15 14 12 11 10 10 10 10 10 11 11 12 12 13 13 14 13 13 13 12 12 12 13 13 13 13 14 16 15 13 13 13 12 12 12 12 11 11 12 12 13 13 13 12 12 12 12 12 13 14 15 16 17 18 19 20
23 22 22 22 21 21 21 21 21 22 21 21 20 18 17 17 17 16 18 19 18 17 16 16 16 16 16 16 16 16 17 17 16 16 16 17 18 18 18 18 18 18 17 14 12 12 12 12 11 11 11 11 11 11 12 13 13 14 14 13 13 13 13 13 13 13 13 14 15 14 13 13 13 12 12 12 12 11 10 11 12 12 13 13 13 12 12 12 12 13 14 15 16 16 17 18 19
23 23 22 22 22 22 22 22 21 22 21 21 22 20 18 18 18 17 18 19 18 18 18 17 17 16 16 16 16 17 16 17 17 16 16 17 17 18 18 18 17 17 18 16 14 13 13 14 13 13 12 11 11 11 11 12 13 13 14 14 14 13 13 13 13 14 14 14 14 13 13 13 13 13 12 12 12 11 10 10 11 12 13 14 13 12 12 12 12 13 13 15 16 17 17 17 18
24 24 23 23 23 23 22 22 21 22 21 22 24 22 20 19 19 19 19 19 20 20 20 19 19 19 18 18 17 17 17 17 17 17 17 17 18 18 18 17 16 16 16 16 16 15 15 15 15 15 14 13 12 11 11 11 12 13 13 14 14 14 14 14 13 14 14 14 13 13 14 14 13 13 13 12 12 11 11 10 11 11 12 13 13 13 12 13 13 12 13 14 15 17 17 17 18
25 25 24 24 24 23 22 22 23 24 24 25 27 26 24 22 21 21 21 20 22 23 22 21 21 22 22 22 21 19 19 19 18 18 17 17 18 18 17 16 15 15 15 16 16 17 18 18 17 16 16 15 14 13 12 11 11 12 13 14 14 15 15 15 14 14 14 14 14 13 14 14 14 14 14 13 12 12 11 11 11 11 11 12 13 13 13 12 12 13 13 13 14 15 16 17 18
26 26 26 26 26 25 24 24 25 25 24 25 27 27 26 23 21 22 22 21 22 23 22 22 22 22 22 23 23 23 21 20 19 18 17 16 16 16 16 17 17 16 16 16 16 18 20 20 20 19 18 16 16 14 14 13 12 12 12 13 14 15 15 15 15 16 16 15 14 14 14 15 15 15 15 14 14 13 12 11 11 11 11 12 12 13 12 12 12 12 13 13 13 14 15 17 18
28 29 29 28 28 27 26 25 24 24 23 24 25 25 25 23 20 21 22 22 22 22 21 22 23 22 21 21 21 21 20 20 19 18 17 17 16 17 17 18 19 19 18 18 17 18 20 21 21 21 20 19 19 17 16 15 14 13 12 13 14 16 16 16 16 17 18 17 16 15 15 15 16 17 16 15 15 14 13 12 11 11 11 11 12 13 13 12 12 12 13 13 13 14 15 15 16
31 30 30 30 30 29 27 26 24 24 24 24 24 24 25 24 22 21 22 23 22 22 22 22 23 23 22 22 21 20 19 19 19 18 18 18 18 18 19 19 19 20 20 19 19 19 20 21 22 22 22 21 21 21 20 18 17 15 14 13 14 15 16 16 17 18 19 19 18 17 16 16 16 18 18 17 16 15 14 13 13 12 11 12 12 13 13 12 12 13 13 13 13 14 15 15 16
33 31 31 30 30 29 28 27 26 25 25 24 24 24 25 24 24 23 23 24 23 23 23 22 23 24 24 23 22 22 21 20 20 19 19 19 20 19 20 20 20 20 20 20 21 21 21 21 22 22 23 23 22 22 22 21 19 18 16 15 15 15 15 16 17 19 19 19 19 19 18 18 17 18 20 20 18 17 16 15 14 14 13 12 12 12 13 13 13 14 14 14 14 14 15 15 16
34 33 33 32 30 30 29 29 28 27 26 25 25 25 25 25 25 24 24 24 24 24 23 22 22 23 24 24 24 24 23 22 21 21 22 22 21 21 21 22 21 21 21 21 21 21 21 21 22 23 23 24 23 22 21 21 20 19 18 17 16 15 15 15 16 18 21 21 20 21 21 20 20 20 21 22 21 20 18 17 16 15 15 14 12 13 14 14 15 16 16 16 15 15 15 16 16
33 33 33 33 33 32 32 31 30 29 29 28 27 26 25 25 25 26 26 26 26 25 25 24 23 22 23 24 26 25 24 24 24 23 24 24 23 22 22 22 22 22 22 21 21 21 21 21 22 22 23 23 23 23 22 21 20 19 18 18 17 17 16 15 16 18 21 21 20 21 22 22 23 23 24 24 24 23 20 19 17 16 16 15 13 13 15 15 16 16 16 16 16 16 17 17 17
34 34 34 35 35 35 34 33 33 32 31 31 29 27 26 26 27 28 29 28 26 26 26 26 24 24 24 25 26 26 25 25 25 24 24 24 23 23 22 22 22 23 22 22 22 22 22 22 22 22 22 22 22 22 23 23 21 20 19 19 18 18 17 16 17 17 19 21 20 21 22 24 25 26 27 27 27 26 24 22 20 17 17 16 15 14 15 15 16 16 16 16 16 16 17 18 19
37 37 37 37 38 38 37 36 35 34 34 34 32 31 30 30 30 30 29 29 28 27 28 27 27 27 26 26 26 27 27 27 25 24 24 24 24 23 23 23 23 23 23 23 23 23 23 23 23 23 23 23 22 22 23 23 22 22 21 21 20 20 20 19 20 19 20 22 22 21 23 24 26 27 28 29 29 29 29 27 23 21 18 17 17 16 15 15 15 15 15 16 16 16 16 17 19
41 41 41 41 41 40 39 38 37 36 36 36 35 35 34 33 32 30 29 29 30 30 30 29 29 29 28 27 27 28 29 28 26 26 25 25 24 23 23 23 23 24 24 24 24 24 24 24 23 24 25 24 24 23 23 23 23 22 23 23 23 23 23 22 23 23 22 22 21 21 22 23 25 26 28 30 30 31 33 32 29 25 22 19 18 18 17 15 16 16 15 16 16 16 16 17 18
42 43 44 44 43 43 43 41 40 39 38 38 38 37 36 35 33 31 31 30 31 32 31 30 30 30 29 29 29 29 29 30 29 28 27 25 24 23 23 24 24 24 24 24 24 24 24 24 24 24 25 25 25 24 24 24 24 24 24 24 24 23 24 23 23 23 23 23 22 21 21 21 23 25 26 27 28 30 33 35 34 31 27 23 20 19 18 17 17 17 17 16 16 16 16 17 19
43 44 44 44 44 44 44 43 42 41 41 39 39 39 38 36 34 32 32 33 35 34 31 31 31 30 31 31 31 31 31 31 31 30 29 28 26 25 24 24 24 24 24 25 25 25 25 25 26 26 26 26 26 25 25 25 25 25 25 25 25 25 25 24 23 23 23 23 23 23 22 22 23 25 25 26 27 29 32 34 35 34 32 29 24 20 19 18 18 18 18 18 17 17 17 18 20
45 43 42 42 42 44 44 44 44 44 43 41 41 43 40 37 36 35 34 35 36 34 31 31 31 32 34 35 34 35 36 35 33 32 32 31 30 28 27 26 25 25 25 26 26 26 26 26 27 28 28 28 27 26 26 26 26 26 26 27 27 28 28 29 28 27 26 25 24 23 23 23 24 24 25 25 27 29 32 34 36 36 35 34 30 25 21 19 18 18 18 18 18 18 19 20 20
46 44 42 42 42 44 45 45 46 45 44 42 43 46 43 39 38 38 37 36 36 34 31 30 31 32 34 38 40 40 40 38 35 33 33 33 34 32 31 29 28 27 27 27 27 27 27 27 28 28 29 29 28 27 27 27 27 26 26 27 28 29 30 32 32 30 28 28 27 25 25 24 24 25 25 25 26 27 29 32 35 37 38 37 36 32 26 21 20 19 18 18 19 19 19 20 20
45 45 44 43 43 44 45 46 46 45 44 42 42 45 44 41 39 37 36 35 35 34 32 30 32 34 36 40 43 43 44 42 38 36 35 35 36 37 36 34 32 31 30 30 30 30 30 30 30 30 30 30 29 28 28 28 29 29 27 27 27 28 29 30 31 30 29 29 29 28 28 27 27 27 27 27 28 28 29 30 33 35 38 39 40 38 33 27 23 21 20 19 19 19 20 20 20
46 47 47 46 46 47 47 47 46 45 45 44 42 44 45 41 37 35 35 34 34 34 33 33 35 37 41 44 45 46 46 46 43 41 39 39 39 38 38 37 35 34 33 32 32 32 32 32 32 32 31 31 30 30 29 29 29 30 29 29 29 30 30 30 31 30 30 30 30 30 29 29 29 28 28 29 29 29 30 30 32 34 37 40 41 41 39 34 28 24 22 21 20 20 20 20 21
50 51 51 51 51 51 50 50 48 47 48 46 43 44 44 39 35 34 34 34 36 35 34 36 38 39 44 47 48 51 50 47 44 44 44 44 42 40 39 38 37 36 36 35 35 34 34 34 33 33 33 33 32 31 31 31 30 30 30 29 29 29 30 31 31 31 31 31 30 30 30 29 29 29 29 29 29 30 30 31 32 33 35 39 41 42 41 39 34 29 26 23 23 22 21 21 21
54 53 53 54 53 52 51 49 48 50 49 45 42 43 43 40 35 34 34 33 35 36 36 37 39 42 46 48 51 54 54 50 45 45 48 47 45 44 42 40 39 39 38 37 37 36 36 36 35 35 35 35 34 33 33 33 33 32 31 30 29 29 29 30 30 30 31 32 32 31 31 31 30 30 29 29 30 30 30 31 31 32 33 36 39 41 42 42 39 34 30 27 25 24 23 23 23
55 53 53 54 51 49 50 48 48 51 48 42 41 43 43 41 36 32 33 33 33 36 37 38 40 44 47 50 52 53 55 54 48 47 49 48 46 44 42 41 41 41 41 40 39 37 36 36 36 36 37 36 36 35 35 35 35 34 33 32 31 31 30 30 30 31 31 32 32 33 33 33 33 32 31 30 31 31 31 32 32 32 32 33 35 37 39 42 42 39 34 30 28 27 26 25 24
53 53 53 53 50 51 53 51 51 50 46 42 42 43 43 40 36 33 32 33 33 35 39 41 44 47 49 51 52 54 56 54 49 49 50 46 43 42 41 42 44 44 43 42 40 39 38 37 36 36 37 38 38 38 37 37 36 35 35 34 34 33 33 32 32 31 32 32 33 34 34 35 36 36 34 33 32 32 33 33 33 33 33 33 34 35 36 39 41 42 39 35 31 30 28 28 27
51 50 50 50 50 57 63 57 52 49 45 44 44 43 42 37 34 33 32 33 33 34 39 43 45 48 50 50 51 53 53 53 52 51 48 44 42 43 44 45 46 45 43 41 40 40 39 39 39 38 39 39 39 40 40 39 39 38 38 37 36 36 36 36 35 34 34 34 35 36 36 36 37 37 37 36 35 34 34 34 34 35 35 35 35 35 36 38 39 40 40 38 35 32 32 31 30
50 48 48 50 50 57 63 57 53 51 46 46 46 43 39 34 33 33 33 34 34 34 37 41 44 45 45 46 47 48 48 49 50 48 46 45 45 45 45 46 46 44 42 42 42 42 42 41 41 41 41 41 41 41 41 41 41 40 41 41 40 40 40 40 39 38 37 37 37 38 39 39 39 38 38 39 38 36 36 36 36 35 35 36 36 36 37 38 39 39 39 38 37 34 33 33 33
53 48 48 50 46 49 56 54 49 50 50 47 44 41 35 32 32 33 34 35 34 35 37 38 41 43 43 45 45 46 47 48 47 46 46 46 45 45 46 46 46 44 44 43 43 43 43 44 44 43 43 42 42 42 42 42 42 42 41 42 42 43 44 44 43 41 39 38 38 38 39 40 41 41 41 40 40 38 37 37 37 37 36 36 36 37 37 38 39 40 40 39 38 36 35 34 33
53 50 47 46 43 43 50 52 48 50 56 49 39 37 33 31 34 34 35 35 33 35 36 36 40 43 43 44 44 45 46 48 49 49 48 46 45 47 47 48 47 47 48 47 46 46 45 44 44 43 43 42 43 43 43 43 42 42 42 42 43 44 44 44 43 42 41 40 40 39 40 40 40 40 41 41 41 40 39 38 38 38 38 37 37 37 37 38 39 40 40 40 40 39 38 36 35
49 49 46 43 44 45 48 54 54 54 58 50 39 37 34 32 34 34 34 36 34 35 36 37 39 42 43 44 45 46 46 48 48 48 49 48 48 49 51 52 52 53 53 53 52 50 47 45 43 42 41 41 41 42 44 45 45 46 46 45 46 47 48 47 43 40 40 42 41 40 40 41 41 41 41 41 41 42 42 41 40 39 39 39 38 38 38 38 39 40 41 42 42 41 41 38 37
44 46 45 44 47 49 49 56 62 64 65 58 47 41 36 33 31 30 35 39 38 39 41 40 40 41 43 43 44 47 49 50 50 49 50 51 51 52 53 55 57 59 57 55 54 53 50 47 43 41 41 41 42 43 44 46 47 48 48 49 49 50 51 52 49 45 42 43 44 43 41 41 42 43 43 44 43 43 44 44 43 42 41 41 41 41 41 41 41 41 41 42 44 44 43 41 39
45 44 45 45 48 49 49 53 59 65 69 64 55 47 38 32 28 28 35 41 43 46 47 46 45 45 45 46 47 50 53 55 57 56 55 56 56 56 56 57 59 61 61 59 56 53 51 49 45 43 42 41 42 43 45 47 49 48 47 47 48 49 50 52 53 52 47 45 47 48 46 45 45 46 48 49 49 48 47 47 47 46 45 44 43 44 44 45 45 45 44 44 45 46 45 44 43
47 48 49 51 52 53 57 57 53 54 60 59 58 54 40 32 33 33 35 41 46 50 50 47 48 50 52 53 55 58 60 60 60 60 60 60 60 60 60 61 62 62 63 62 58 54 51 50 49 49 47 44 41 40 41 42 44 44 44 43 43 44 44 46 49 51 49 46 46 50 51 52 53 54 54 54 54 54 53 51 51 50 50 49 48 47 47 48 49 49 50 50 49 49 47 46 45
46 52 55 55 55 60 68 66 55 52 58 59 64 66 51 38 40 40 39 44 47 48 48 48 48 52 55 59 61 64 65 63 63 62 61 60 58 57 58 58 59 58 58 56 54 52 49 46 44 44 44 43 40 38 36 33 31 32 35 37 38 39 40 42 43 45 46 46 47 50 53 56 59 61 61 61 60 59 58 57 56 55 54 53 53 53 52 51 51 52 54 55 55 54 53 51 49